Simultaneous Nadir Overpasses (SNOs) Predictions

Prediction of SNOs between LANDSAT-8 and NOAA-19 Satellite Orbit:

Table of predicted SNOs for the next 14.0 days since TLE Epoch: 6/13/2020
Index Date (LANDSAT-8) Time (LANDSAT-8) Lat,Lon (LANDSAT-8) SZA (LANDSAT-8 ) Date (NOAA-19) Time (NOAA-19) Lat,Lon (NOAA-19) SZA (NOAA-19 ) Distance(km) Time Diff (sec)
1 06/13/2020 13:42:36 79.76, 0.08 57.56 06/13/2020 13:41:58 79.75, 0.07 57.54 1.25 38
2 06/13/2020 14:32:04 -79.73, 167.46 122.50 06/13/2020 14:32:57 -79.73, 167.56 122.47 2.08 53
3 06/15/2020 19:16:22 -79.76, 96.61 122.56 06/15/2020 19:15:16 -79.76, 96.68 122.57 1.59 66
4 06/15/2020 20:05:48 79.76, -95.74 57.45 06/15/2020 20:06:15 79.73, -95.73 57.44 2.60 27
5 06/18/2020 01:39:34 -79.75, 0.78 122.64 06/18/2020 01:39:34 -79.76, 0.75 122.63 1.01 0
6 06/20/2020 07:13:18 79.77, 97.53 57.37 06/20/2020 07:12:51 79.77, 97.35 57.34 3.62 27
7 06/20/2020 08:02:46 -79.75, -95.06 122.68 06/20/2020 08:03:52 -79.75, -95.20 122.66 2.99 66
8 06/22/2020 12:47:04 -79.77,-165.95 122.65 06/22/2020 12:46:10 -79.77,-165.84 122.66 2.06 54
9 06/22/2020 13:36:30 79.77, 1.66 57.35 06/22/2020 13:37:08 79.76, 1.50 57.35 3.25 38
10 06/24/2020 19:10:16 -79.76, 98.18 122.63 06/24/2020 19:10:28 -79.77, 98.17 122.61 1.10 12
11 06/27/2020 00:44:00 79.77,-165.15 57.46 06/27/2020 00:43:43 79.78,-165.21 57.46 1.60 17




NCC Satellite Simultaneous Nadir Overpasses (SNOs) Prediction Service
